Temp
33 33 33 34 35 35 34 34 34 34 33 30 30 31 32 29 27 27 27 26 24 21 19 16 15 13 13 12 11 10 9 8 9 9 9 8 8 8 7 6 5 4 3 3
33 32 35 36 34 33 33 33 33 32 32 30 31 31 32 31 28 28 28 26 25 21 20 16 14 13 13 12 11 10 9 8 8 8 8 7 8 8 7 6 5 4 3 3
32 34 35 33 33 32 33 33 33 32 31 30 30 30 32 32 30 28 28 28 25 23 20 17 15 14 12 12 10 10 9 8 7 6 7 7 8 8 7 6 6 4 4 3
33 34 32 32 32 32 32 33 32 31 29 31 30 30 33 33 32 29 27 27 25 24 21 18 15 14 13 11 10 9 8 8 7 5 6 6 7 7 6 6 5 5 4 3
32 32 31 31 32 33 32 31 31 31 31 31 31 29 33 31 31 30 28 26 25 24 22 19 16 14 13 11 10 9 8 7 6 5 5 5 5 5 5 5 5 5 4 4
32 32 32 32 30 31 31 30 30 31 31 29 31 31 32 32 30 29 29 27 25 23 21 19 16 14 13 11 10 9 8 6 5 5 5 4 4 4 4 4 5 4 4 4
32 31 31 30 30 30 30 30 29 29 30 29 30 29 31 30 28 27 27 27 24 23 20 18 16 14 12 11 9 8 7 6 5 5 4 4 4 4 4 4 4 4 3 3
32 30 31 31 31 31 30 31 29 28 30 31 29 29 31 27 26 25 26 25 23 22 20 18 15 14 12 10 9 8 7 7 5 5 4 4 3 4 4 3 3 3 3 2
31 31 31 30 31 31 31 29 31 29 29 28 30 32 28 26 25 25 25 23 22 21 19 17 15 14 12 10 8 7 7 6 5 5 4 4 3 3 2 2 2 2 2 1
31 30 30 29 29 30 29 31 28 29 27 27 31 32 32 27 26 24 23 23 21 20 18 17 15 13 11 9 7 6 6 5 5 4 4 3 3 2 2 2 2 1 1 0
30 30 29 28 28 30 29 28 29 29 29 28 28 30 29 29 28 25 23 22 20 19 17 16 14 12 10 8 7 6 6 6 5 4 3 3 2 2 2 2 1 1 0 -0
30 29 28 30 31 30 30 30 30 28 28 29 28 28 28 28 27 26 24 22 20 19 17 15 13 11 9 8 7 6 5 5 4 4 3 3 2 2 2 1 1 0 -0 -0
25 28 27 28 30 29 28 30 30 30 29 27 27 28 27 26 25 25 23 21 19 17 16 14 12 11 9 8 7 7 6 5 4 3 3 2 2 2 1 1 0 0 -0 -0
22 26 27 27 29 30 28 29 29 29 27 27 28 29 26 26 25 23 22 20 18 16 15 13 12 10 9 8 7 6 5 4 4 3 3 2 1 1 1 0 0 -0 -0 -1
25 24 26 27 28 28 27 28 29 28 28 27 28 29 28 26 25 23 21 19 17 15 14 13 12 10 8 7 7 6 5 4 3 3 2 2 1 1 1 0 0 -0 -0 -1
25 24 25 25 27 27 26 27 28 28 28 28 28 28 27 23 22 20 19 17 16 15 14 13 11 9 8 8 7 5 4 3 3 2 2 2 1 1 0 0 0 -0 -0 -0
24 23 24 23 27 25 24 27 27 28 29 28 26 27 23 21 20 19 18 17 16 14 13 12 11 10 8 7 6 5 4 3 3 2 2 1 1 1 0 0 -0 -0 -0 -0
24 24 23 22 24 19 26 27 26 25 27 27 25 24 24 22 20 19 18 17 16 14 13 12 10 9 7 6 5 4 4 3 3 2 2 1 1 1 0 -0 -0 -0 -0 -0
24 24 22 19 21 24 26 24 24 24 25 27 25 22 21 19 17 16 17 17 15 14 12 11 9 8 6 5 4 4 3 3 3 2 1 1 0 0 -0 -0 -0 -0 -0 -0
23 24 23 18 16 20 23 23 23 23 22 23 22 19 18 19 21 14 14 14 13 12 11 9 8 7 5 4 4 4 3 3 2 1 1 1 0 -0 -0 -0 -0 -0 -0 -0
23 23 22 22 21 22 25 23 23 22 20 21 21 20 19 17 13 13 13 13 12 11 9 8 7 6 5 4 4 3 3 2 1 0 0 -0 -0 -0 -0 -0 -0 -0 -0 -1
22 22 20 21 20 18 22 23 21 20 21 20 19 15 11 11 11 13 13 12 10 9 7 7 6 5 4 4 3 3 1 0 0 0 -1 -1 -1 -1 -0 -0 -1 -1 -1 -1
21 22 20 21 22 22 21 20 19 19 19 18 17 14 13 12 12 12 11 10 8 8 7 6 5 4 3 3 3 1 1 0 -1 -2 -2 -1 -0 -0 -1 -1 -2 -2 -2 -2
22 21 20 20 21 19 19 19 19 18 17 15 15 14 13 12 12 11 10 9 8 7 7 5 4 4 3 2 0 -2 -2 -2 -2 -1 -0 1 -1 -0 -2 -2 -3 -4 -5 -5
22 20 20 19 20 19 19 17 16 16 15 16 15 14 13 12 11 10 9 9 7 6 5 5 4 3 1 -0 -2 -2 -2 -1 0 1 1 1 0 -0 -1 -4 -5 -5 -7 -8
22 20 19 19 19 17 17 16 17 16 16 15 14 13 13 12 11 10 9 8 7 5 4 4 1 -2 -3 -3 -3 -2 -1 1 1 1 0 -1 0 -0 -1 -1 -3 -5 -6 -6
Height
757 766 770 758 753 749 758 762 765 757 760 784 785 778 767 778 789 795 796 803 813 826 838 846 850 854 856 858 860 860 861 861 861 859 858 856 854 852 852 851 851 850 849 846
763 773 746 741 750 761 763 767 766 766 768 782 775 772 761 762 778 783 788 796 806 822 832 845 851 854 855 857 859 860 860 861 861 860 858 856 853 851 851 851 850 850 849 847
767 752 741 753 762 772 765 768 765 774 775 775 777 777 758 752 761 774 779 785 798 813 826 840 848 851 855 857 858 859 860 861 862 860 858 855 852 851 850 850 850 849 849 847
758 748 757 762 766 764 773 753 765 773 787 784 774 786 753 744 753 768 776 783 792 804 818 833 843 849 852 856 858 859 861 862 862 861 859 856 854 853 852 851 850 849 848 847
764 762 766 768 762 753 767 765 769 770 776 773 770 787 748 748 756 758 769 778 787 797 812 827 839 846 851 856 858 860 861 862 862 862 860 857 856 855 853 852 850 848 847 845
756 753 756 757 763 761 763 772 773 770 772 789 763 766 760 750 756 761 761 773 783 795 809 823 837 845 851 855 857 860 861 863 863 862 860 859 858 857 855 853 851 849 847 844
758 761 757 760 771 766 768 776 789 791 784 784 763 774 759 753 762 765 768 771 783 794 809 822 834 844 850 855 857 860 861 863 863 862 861 860 859 857 855 854 852 850 847 845
759 779 759 755 760 765 771 769 786 799 785 769 767 776 754 760 768 771 771 775 785 797 809 821 833 842 848 854 857 860 861 863 863 862 861 860 859 858 856 856 854 851 849 847
761 760 751 756 754 760 761 782 761 780 771 784 765 742 756 763 770 773 775 782 790 799 810 821 833 840 848 854 857 859 861 863 863 863 862 861 861 860 859 857 855 852 849 848
755 772 757 762 762 761 765 755 782 776 800 793 757 743 736 762 767 774 781 784 792 800 812 822 832 841 848 854 858 861 862 864 864 864 863 862 861 860 860 858 856 853 849 848
755 762 767 770 771 762 768 774 772 767 766 781 781 760 744 747 751 768 778 784 792 801 812 822 832 842 850 855 858 862 864 864 864 865 864 864 863 862 860 859 857 854 850 848
755 763 772 762 747 752 756 756 757 779 775 763 771 769 748 749 754 761 772 785 794 803 813 825 836 845 851 855 859 863 864 865 865 865 865 865 864 862 861 859 858 854 850 847
778 771 782 771 756 753 763 755 753 752 757 774 779 764 753 761 764 768 776 788 797 807 819 830 840 847 853 857 860 862 864 865 866 865 865 865 865 864 861 859 856 854 851 848
784 775 775 779 762 753 766 757 753 757 773 770 760 752 757 760 764 774 780 791 801 812 824 833 841 847 852 857 860 863 866 867 867 867 866 866 866 863 861 859 856 854 851 848
781 787 775 767 761 762 764 759 754 758 757 770 756 750 746 753 762 774 785 795 807 817 825 832 838 845 852 857 860 864 866 867 868 868 869 868 866 864 862 859 857 854 851 848
780 789 779 781 767 765 769 760 754 752 751 751 747 747 745 765 772 783 791 798 808 817 826 833 840 848 853 856 861 865 867 869 869 868 868 868 866 865 863 860 858 854 851 848
787 789 787 790 766 773 780 761 753 748 742 746 759 750 763 773 781 788 795 802 809 816 826 834 842 848 854 859 862 864 869 870 870 869 870 869 868 866 863 862 859 855 851 849
786 787 789 794 779 811 762 752 756 759 749 744 758 764 762 775 784 791 798 804 811 820 829 837 843 848 855 859 865 865 867 868 870 870 871 870 869 867 864 862 859 857 853 851
779 784 794 809 799 779 765 769 770 766 760 746 757 777 781 784 791 802 803 810 816 824 832 839 846 851 858 862 864 867 868 869 870 872 872 871 870 868 867 863 860 858 855 852
781 779 785 810 826 806 779 771 769 767 777 768 775 786 790 791 782 811 815 818 822 830 837 844 849 856 859 864 865 867 869 870 872 875 874 873 871 870 869 864 862 860 857 854
781 780 787 786 795 783 763 771 765 782 792 779 778 785 790 798 810 814 821 822 827 834 842 850 852 855 860 864 866 868 871 874 876 876 875 874 873 872 869 865 865 862 859 856
787 789 797 793 797 805 779 774 784 790 781 783 787 797 801 809 817 820 823 829 835 843 848 854 857 860 863 866 867 869 873 877 877 877 878 876 875 873 870 868 867 865 862 858
795 787 795 791 786 782 785 790 794 793 790 792 794 804 805 810 817 823 830 835 842 848 852 856 860 865 866 867 868 872 876 878 878 878 879 879 877 875 873 872 871 869 866 863
780 788 793 793 782 790 792 790 792 796 796 797 802 804 809 813 817 826 833 839 845 851 853 859 864 868 869 871 873 875 877 878 879 879 879 880 879 876 877 877 876 875 872 869
782 787 788 791 786 788 786 791 794 795 795 800 804 806 809 815 823 826 834 839 847 853 856 859 865 868 871 875 876 878 880 881 881 881 881 880 880 879 880 880 880 879 877 875
779 785 793 790 786 792 793 795 793 794 799 802 807 809 815 817 823 829 835 842 850 855 858 863 870 869 873 876 878 880 882 882 882 883 883 882 881 882 882 882 881 880 879 877
Wind_Speed
13 12 14 17 17 11 11 6 11 10 13 14 16 17 15 19 20 20 19 18 17 15 17 15 12 10 8 6 5 5 5 6 7 8 9 9 10 9 9 10 11 12 14 15
7 14 15 13 8 8 10 11 11 5 7 12 14 17 17 17 21 20 19 18 17 16 15 15 14 12 9 6 5 4 5 5 7 7 8 9 8 9 9 10 10 11 13 15
14 5 1 2 8 12 12 12 9 7 6 13 13 19 22 17 17 18 18 16 16 18 17 15 15 13 9 7 5 4 4 4 6 8 8 10 8 8 10 11 11 13 13 14
12 3 4 10 13 12 13 11 6 7 8 8 9 12 11 11 18 18 17 16 16 18 17 17 17 14 11 8 6 5 4 4 6 8 9 10 11 11 11 11 12 12 12 13
8 6 9 12 13 10 9 1 6 9 12 16 12 8 8 5 8 12 14 16 16 16 17 16 17 14 11 9 7 5 4 4 6 8 10 11 11 11 10 11 12 12 12 12
9 3 6 6 2 4 7 5 7 10 11 12 18 14 11 7 4 5 9 13 15 15 16 17 17 14 11 9 7 6 4 4 6 8 9 10 11 10 12 13 13 14 13 13
12 13 5 7 5 5 11 8 8 10 9 12 5 4 14 10 4 3 4 12 14 15 16 15 18 15 13 10 8 6 4 4 6 8 9 10 10 10 11 13 13 14 14 14
12 11 16 13 14 8 11 14 9 16 12 14 5 6 2 11 7 4 4 9 12 15 15 16 17 16 13 10 8 6 4 4 6 7 8 9 10 11 11 12 13 13 14 14
8 9 9 1 5 8 6 8 9 11 15 11 14 17 8 9 9 8 9 11 13 15 15 15 17 15 13 11 8 6 4 5 6 7 8 9 10 11 12 12 13 13 13 15
14 11 7 6 5 9 11 8 5 8 8 15 14 15 7 13 12 11 10 11 13 14 15 14 17 15 13 11 9 7 5 5 6 8 8 9 10 11 12 12 13 13 14 15
13 13 4 4 9 13 8 11 10 10 10 12 14 7 5 8 12 11 10 11 13 15 15 14 17 15 13 11 9 7 5 5 6 8 8 9 11 12 12 12 13 14 14 15
3 5 12 15 2 5 11 14 14 10 14 10 9 12 3 6 7 5 10 10 12 14 15 15 16 15 13 10 8 6 5 5 6 7 7 9 11 11 12 13 14 14 15 15
10 5 9 15 9 12 12 15 15 17 14 17 14 11 5 5 6 3 9 11 12 14 15 14 15 13 12 9 7 6 4 4 6 6 7 9 11 12 12 12 13 14 15 15
3 8 13 12 15 9 6 9 10 12 12 15 14 18 12 10 7 5 9 11 13 14 14 13 13 12 12 10 7 6 5 5 5 6 8 9 10 10 11 12 14 15 15 15
4 9 13 16 15 14 16 18 17 15 16 17 20 18 9 6 3 7 10 12 13 14 14 13 12 13 12 10 8 6 5 5 5 7 8 8 9 10 11 13 14 15 15 15
3 6 10 13 16 11 17 17 18 16 18 20 20 19 9 8 9 9 11 13 14 14 14 13 13 13 12 10 8 6 5 5 5 7 6 7 9 11 12 14 15 16 15 15
4 5 8 10 11 10 12 11 12 16 16 14 15 5 11 10 8 9 10 11 12 14 14 13 13 13 11 10 9 7 6 5 5 6 6 8 10 11 13 14 15 16 16 15
4 6 3 6 11 4 6 3 8 11 16 7 2 4 9 12 12 9 8 9 12 13 13 13 14 14 13 11 9 8 7 6 5 5 7 8 10 12 13 14 16 17 16 15
6 3 2 2 7 14 14 17 13 13 13 3 2 6 9 14 17 11 7 8 11 13 15 15 15 15 13 12 10 8 7 6 6 6 7 9 11 12 13 14 16 16 15 15
3 3 4 3 2 5 7 11 8 7 1 9 6 7 8 9 3 6 8 11 14 16 16 17 17 15 14 10 10 9 7 7 7 6 7 9 10 11 13 15 16 15 14 14
7 6 8 9 7 7 9 8 4 7 5 5 6 8 7 5 5 12 11 14 17 17 18 17 17 15 13 10 10 9 8 8 6 5 7 8 10 10 13 15 14 15 14 15
6 5 4 3 4 5 14 6 7 8 1 3 6 8 13 14 13 13 13 14 18 19 19 16 15 14 12 10 10 10 10 6 5 7 7 8 9 11 14 15 15 16 16 16
4 4 4 5 7 7 9 7 7 9 9 8 7 7 13 16 14 14 14 16 18 18 17 14 14 13 11 9 9 11 9 6 6 7 8 8 8 12 14 14 16 17 18 18
3 1 4 7 2 8 9 10 10 6 3 3 5 12 13 14 15 14 13 17 17 16 16 15 14 12 11 10 12 11 8 8 9 7 5 7 11 11 14 14 15 17 18 18
7 2 4 9 11 10 8 6 7 3 2 5 10 13 14 15 15 16 14 17 17 16 16 15 13 13 12 12 12 9 7 5 5 6 6 7 9 10 9 11 15 14 16 17
9 9 6 9 5 5 6 10 4 4 3 7 10 12 13 17 14 17 16 17 17 16 15 14 13 16 14 12 11 7 5 4 5 5 7 7 9 8 9 8 6 11 15 17
Wind_Direction
204 230 223 215 223 274 301 248 258 219 142 205 233 253 242 189 206 214 206 199 195 184 187 174 174 166 154 132 113 82 58 31 13 6 360 354 354 355 357 359 359 357 356 353
193 239 251 237 212 260 259 259 253 75 138 211 250 255 251 194 205 214 214 206 197 185 178 180 182 181 180 145 129 99 61 35 20 7 360 348 348 350 355 357 354 353 352 351
240 286 315 232 205 238 238 255 260 266 168 232 264 270 249 238 191 206 221 213 194 199 184 185 192 190 178 160 140 105 67 43 23 7 1 359 356 354 360 354 350 348 347 348
242 280 223 231 228 232 254 215 269 260 242 284 175 294 280 206 196 197 211 215 204 199 187 186 194 192 190 159 138 112 76 47 27 15 11 6 3 2 356 349 347 341 342 343
232 218 233 239 238 242 260 306 248 259 254 271 241 253 279 167 223 192 206 206 205 196 183 188 189 190 180 164 143 118 98 56 31 21 17 9 8 358 351 351 343 343 342 344
267 314 243 267 72 284 118 227 239 248 254 263 256 234 285 147 137 112 195 195 189 190 178 181 180 177 171 161 140 128 103 59 31 22 17 14 7 357 353 352 345 346 343 344
204 220 159 202 181 187 216 229 257 236 211 253 127 247 253 119 90 103 168 168 176 179 176 172 173 177 171 164 148 133 102 66 34 23 17 13 7 0 352 351 348 340 344 346
225 183 199 192 227 244 215 252 258 289 291 311 132 257 129 97 115 132 140 149 163 170 171 174 171 183 170 161 146 133 106 68 36 23 16 13 8 3 357 350 345 344 344 344
278 254 111 193 226 255 204 236 299 286 273 266 272 265 138 152 136 145 140 150 164 166 166 169 173 170 163 159 149 129 101 68 38 22 15 14 8 4 354 346 345 346 346 343
275 278 192 138 221 230 258 353 233 216 278 275 279 289 277 159 156 147 155 162 163 163 162 166 165 162 160 151 137 119 90 65 37 22 19 15 8 2 352 348 350 349 350 347
287 262 207 147 212 248 186 236 244 290 272 281 288 288 62 143 158 169 165 166 165 165 163 161 158 159 153 147 135 119 88 57 34 23 21 16 10 1 355 355 352 352 352 348
353 289 264 244 39 318 299 282 236 238 272 231 275 283 134 133 123 144 152 160 160 161 160 156 152 155 149 143 131 111 85 57 33 29 25 18 10 4 360 359 355 354 353 351
3 242 261 257 215 228 254 255 254 273 259 274 283 271 146 126 117 101 141 154 155 154 152 148 150 155 147 137 130 119 88 59 34 35 30 23 12 6 4 358 356 356 353 354
297 276 278 281 301 328 254 258 267 256 264 276 275 287 172 178 171 151 142 150 152 151 151 152 152 152 145 143 136 115 88 51 38 38 35 26 11 3 1 358 360 358 356 355
327 284 283 294 306 313 296 291 288 269 263 261 279 287 39 113 134 146 140 145 145 153 161 159 159 150 147 142 130 113 95 63 54 45 34 18 6 3 1 2 360 357 358 358
35 300 296 283 282 284 286 295 294 280 275 271 274 278 88 101 98 130 142 150 158 161 166 163 152 151 149 141 132 116 93 74 63 52 34 14 8 6 3 1 359 359 359 0
318 319 304 286 290 308 286 285 298 285 274 276 284 345 120 115 126 139 146 154 163 161 162 158 153 149 143 133 133 116 97 87 66 49 29 17 11 7 5 1 1 1 2 359
287 281 288 293 306 262 286 302 312 295 293 277 284 113 99 106 95 99 133 154 157 156 154 149 150 138 132 132 119 117 111 96 67 46 29 19 10 9 7 5 5 4 3 360
238 241 260 273 293 302 297 13 356 338 317 333 190 105 106 113 108 85 86 124 139 143 146 145 137 134 132 127 125 119 108 92 65 42 29 18 13 12 9 7 8 4 2 2
181 282 239 135 143 274 60 7 0 318 20 32 78 139 138 184 31 100 124 118 126 136 135 134 131 129 127 128 126 115 102 85 62 45 30 22 16 16 10 13 9 4 5 6
234 249 277 268 250 257 313 330 292 272 33 17 87 113 110 71 71 121 130 126 127 130 128 133 132 132 129 131 126 113 95 78 69 50 39 28 22 19 17 19 12 9 11 14
291 298 276 317 296 278 8 312 349 4 99 95 93 103 106 120 130 137 123 124 122 126 132 135 129 127 127 130 122 105 94 92 74 58 43 36 28 26 26 23 19 19 17 18
267 350 314 298 301 25 34 15 5 7 15 30 78 93 126 134 133 130 131 128 134 138 136 134 128 127 126 123 114 105 101 95 79 72 66 42 38 40 34 30 27 24 21 20
207 77 264 312 311 352 318 320 330 330 359 84 151 151 146 136 132 134 133 136 140 141 134 130 132 133 122 111 106 108 119 106 86 64 65 56 50 50 44 39 34 32 27 22
322 138 280 269 279 274 324 322 307 322 119 221 148 148 144 137 141 139 144 141 142 143 136 139 139 133 120 120 116 121 117 112 95 78 69 64 55 49 54 54 48 44 38 34
255 262 249 282 342 291 316 353 350 176 163 130 143 128 140 138 140 143 139 142 145 145 141 139 133 126 124 129 127 124 122 107 95 85 70 58 60 53 45 41 62 24 26 28